Weather in Kalemyo

Myanmar     23°11′30″N   94°03′43″E
temp.,
°C
wind,
m/s
gust,
m/s
humid.,
%
clouds,
%
prec.,
mm/h
press.,
hPa
HPBL,
m
16 april, fri
fri1600:30+26w2229100 0.0 100743
03:30+25w2235100 0.0 100742
06:30+26w1135100 0.0 100838
09:30+30ese2127100 0.0 1011331
12:30+33e1221100 0.0 10101395
15:30+32se3322100 0.0 10061582
18:30+28wsw113078 0.0 100711
21:30+27wsw223396 0.0 101057
17 april, sat
sat1700:30+25wnw2443100 0.0 1010131
03:30+23w115218 0.0 100922
06:30+22w11502 0.0 101234
09:30+31ese22282 0.0 10121406
12:30+34ne332389 0.0 10092573
15:30+35nne112161 0.1 10061490
18:30+29w213181 0.1 100614
21:30+24nw24488 0.3 101172
18 april, sun
sun1800:30+23w214649 0.3 101133
03:30+22wnw114912 0.0 101115
06:30+22w225394 0.1 101248
09:30+31ese32292 0.0 10121051
12:30+36e461967 0.0 10072863
15:30+35se221894 0.0 10031300
18:30+31nnw112518 0.0 100313
21:30+27w213369 0.0 100636
19 april, mon
mon1900:30+25w344335 0.0 100777
03:30+23w22500 0.0 100648
06:30+24w22473 0.0 100849
09:30+34ese34230 0.0 10081915
12:30+39ene151414 0.0 10043911
15:30+39w66126 0.0 10014408
18:30+33w342198 0.0 100186
21:30+27wnw35386 0.0 1005136
20 april, tue
tue2000:30+24wnw23540 0.0 100665
03:30+23wnw22510 0.0 100542
06:30+23wsw12510 0.0 100844
09:30+32ese33290 0.0 10091257
12:30+39e371454 0.0 10054059
15:30+40wnw341146 0.0 10014625
18:30+33wnw361948 0.0 1002138
21:30+28w353716 0.0 1006125